This is the latest recevied weather packets stored in our database for station/object KD4KKF. If no packets are shown the sender has not sent any weather packets the latest 10 day(s).
| Time | Temp. | Humidity | Pressure | Rain* | Wind** | Luminosity | Snow |
|---|---|---|---|---|---|---|---|
| 1777737366 | 17.22° C | 46% | 1017.2 hPa | 0 mm | - | 750 W/m² | - |
| 1777737062 | 17.22° C | 46% | 1017.1 hPa | 0 mm | - | 780 W/m² | - |
| 1777736758 | 17.78° C | 47% | 1017.2 hPa | 0 mm | - | 791 W/m² | - |
| 1777736130 | 17.22° C | 48% | 1017.2 hPa | 0 mm | - | 783 W/m² | - |
| 1777735827 | 16.67° C | 50% | 1017.3 hPa | 0 mm | - | 759 W/m² | - |
| 1777735525 | 16.11° C | 48% | 1017.1 hPa | 0 mm | - | 795 W/m² | - |
| 1777735222 | 16.11° C | 50% | 1016.9 hPa | 0 mm | - | 796 W/m² | - |
| 1777734919 | 16.67° C | 50% | 1017 hPa | 0 mm | - | 773 W/m² | - |
| 1777734616 | 15.56° C | 50% | 1016.9 hPa | 0 mm | - | 740 W/m² | - |
| 1777734314 | 15.56° C | 48% | 1016.9 hPa | 0 mm | - | 776 W/m² | - |
| 1777734009 | 15.56° C | 51% | 1016.9 hPa | 0 mm | - | 773 W/m² | - |
| 1777733706 | 16.11° C | 51% | 1016.7 hPa | 0 mm | - | 789 W/m² | - |
| 1777733402 | 15.56° C | 53% | 1016.8 hPa | 0 mm | - | 585 W/m² | - |
| 1777733099 | 15° C | 54% | 1016.6 hPa | 0 mm | - | 789 W/m² | - |
| 1777732795 | 15° C | 60% | 1016.6 hPa | 0 mm | - | 307 W/m² | - |
| 1777732492 | 15° C | 60% | 1016.7 hPa | 0 mm | - | 386 W/m² | - |
| 1777732190 | 15° C | 62% | 1016.8 hPa | 0 mm | - | 556 W/m² | - |
| 1777731887 | 15° C | 60% | 1016.7 hPa | 0 mm | - | 460 W/m² | - |
| 1777731583 | 14.44° C | 63% | 1016.7 hPa | 0 mm | - | 347 W/m² | - |
| 1777731282 | 14.44° C | 62% | 1016.5 hPa | 0 mm | - | 301 W/m² | - |
| 1777730978 | 14.44° C | 65% | 1016.2 hPa | 0 mm | - | 369 W/m² | - |
| 1777730677 | 13.89° C | 65% | 1016.2 hPa | 0 mm | - | 327 W/m² | - |
| 1777730373 | 13.89° C | 65% | 1016 hPa | 0 mm | - | 303 W/m² | - |
| 1777730069 | 13.89° C | 67% | 1016.1 hPa | 0 mm | - | 322 W/m² | - |
| 1777729765 | 13.33° C | 67% | 1016 hPa | 0 mm | - | 267 W/m² | - |
* Rain latest hour (hover to see other rain measurements)
** Current wind speed in m/s (hover to see current wind gust speed)